Regional Weather Roundup
Issued by NWS

Home | Current Version | Previous Version | Text Only | Print | Product List | Glossary On
Versions: 1 2 3 4 5 6 7 8 9 10 11 12 13 14 15 16 17 18 19 20 21 22 23 24 25 26 27 28 29 30 31 32 33 34 35 36 37 38 39 40 41 42 43 44 45 46 47 48 49 50
000
ASUS43 KDMX 172007
RWRIA

WEATHER ROUNDUP FOR IOWA
NATIONAL WEATHER SERVICE DES MOINES IA
300 PM CDT WED SEP 17 2014

NOTE: "FAIR" INDICATES FEW OR NO CLOUDS BELOW 12,000 FEET WITH NO
SIGNIFICANT WEATHER AND/OR OBSTRUCTIONS TO VISIBILITY.

* - THESE STATIONS ARE NOT NWS STATIONS...THUS NOT UNDER NWS
QUALITY CONTROL.  THEY ALSO DO NOT REPORT WEATHER SUCH
AS PRECIPITATION OR FOG.

IAZ001>003-012>014-020>022-031>034-043>046-172100-
   NORTHWEST IOWA

CITY           SKY/WX    TMP DP  RH WIND       PRES   REMARKS
CARROLL *      SUNNY     75  55  50 E6G13     29.92F
CHEROKEE *     PTSUNNY   75  55  50 S3        29.91F
DENISON *      PTSUNNY   75  57  53 CALM      29.90S
LE MARS *      SUNNY     77  59  53 VRB5      29.91F
ORANGE CITY *  SUNNY     77  57  50 W5        29.91F
SHELDON *      MOSUNNY   75  59  57 VRB6      29.91S
SIOUX CITY     SUNNY     79  60  52 SE5       29.90F HX  80
SPENCER        PTSUNNY   75  55  49 VRB3      29.93S
STORM LAKE *   SUNNY     73  57  56 E8        29.92F
$$

IAZ055>058-069>071-079>083-090>094-172100-
   SOUTHWEST IOWA

CITY           SKY/WX    TMP DP  RH WIND       PRES   REMARKS
ATLANTIC *     MOSUNNY   75  59  57 CALM      29.90F
AUDUBON *      SUNNY     75  54  46 CALM      29.93F
CLARINDA *     MOSUNNY   77  61  57 CALM      29.92F
COUNCIL BLFS * SUNNY     77  64  65 SE8       29.90F
CRESTON *      PTSUNNY   75  59  57 VRB7      29.93F
HARLAN  *      SUNNY     77  59  53 VRB5      29.94F
LAMONI         PTSUNNY   74  61  63 NE6       29.93F
SHENANDOAH *   SUNNY     77  63  61 VRB6      29.91F
$$

IAZ047>049-059>061-072>074-084-172100-
   CENTRAL IOWA

CITY           SKY/WX    TMP DP  RH WIND       PRES   REMARKS
AMES           SUNNY     75  56  51 VRB6      29.94F
ANKENY *       MOSUNNY   73  57  56 VRB3      29.93F
CHARITON *     MOSUNNY   72  57  60 SE7       29.94S
DES MOINES     PTSUNNY   75  57  53 SE6       29.93F
GRINNELL*      CLOUDY    72  55  56 E5        29.95F
KNOXVILLE *    SUNNY     73  55  53 E7        29.93F
MARSHALLTOWN   SUNNY     71  54  54 S7        29.95F
PELLA *        SUNNY     72  57  60 SE3       29.95F
PERRY *        CLOUDY    75  55  50 SE5       29.93F
$$

IAZ004>006-015-016-023>025-035-036-172100-
   NORTH CENTRAL IOWA

CITY           SKY/WX    TMP DP  RH WIND       PRES   REMARKS
ALGONA *       SUNNY     72  55  56 SE6       29.94F
CLARION *        N/A     73  52  46 CALM      29.94F
ESTHERVILLE    SUNNY     71  55  56 CALM      29.93
FORT DODGE *   MOSUNNY   73  52  46 SE5       29.94F
MASON CITY     SUNNY     73  51  46 VRB5      29.96S
FOREST CITY *  MOSUNNY   72  55  56 SE5       29.94F
IOWA FALLS *     N/A     72  50  46 SW3       29.96S
$$

IAZ007>011-017>019-026>030-037>042-050>054-066-172100-
   NORTHEAST IOWA

CITY           SKY/WX    TMP DP  RH WIND       PRES   REMARKS
CEDAR RAPIDS   MOSUNNY   69  56  62 CALM      29.96F
CHARLES CITY * SUNNY     70  48  46 CALM      29.96F
CLINTON *      PTSUNNY   70  52  52 SE5       30.01F
DECORAH *      MOSUNNY   70  52  52 S6        29.96F
DUBUQUE        SUNNY     68  51  54 MISG      29.99F
MONTICELLO *   MOSUNNY   70  52  52 VRB7      29.97F
OELWEIN *      SUNNY     70  48  46 VRB5G12   29.97F
WATERLOO       SUNNY     71  49  45 VRB6      29.95F
$$

IAZ064-065-067-068-078-172100-
   EAST CENTRAL IOWA

CITY           SKY/WX    TMP DP  RH WIND       PRES   REMARKS
DAVENPORT      SUNNY     69  50  50 S7        29.98F
IOWA CITY      MOSUNNY   70  57  63 VRB3      29.97F
MT. PLEASANT * CLOUDY    72  54  53 SE7       29.97F
MUSCATINE *    PTSUNNY   70  52  52 VRB7      29.97F
QUAD CITIES    SUNNY     69  51  52 E3        29.98F
$$

IAZ062-063-075>077-085>089-095>099-172100-
   SOUTHEAST IOWA

CITY           SKY/WX    TMP DP  RH WIND       PRES   REMARKS
BURLINGTON     CLOUDY    66  56  70 S6        29.97F
FAIRFIELD *    PTSUNNY   70  55  60 VRB6      29.96F
FORT MADISON * PTSUNNY   70  55  60 CALM      29.97F
KEOKUK *       CLOUDY    68  55  64 SE5       29.96F
OSKALOOSA *    CLOUDY    70  57  64 SE6       29.96S
CENTERVILLE *  MOSUNNY   72  61  68 E6        29.96F
OTTUMWA        PTSUNNY   70  57  63 SE6       29.95F
WASHINGTON *   MOSUNNY   68  57  68 SE7       29.97S
$$

ABBREVIATIONS USED IN REMARKS
   TC - TEMPERATURES IN CELSIUS
  WCI - WIND CHILL INDEX
   HX - HEAT INDEX
  VSB - VISIBILITY
$$




USA.gov is the U.S. government's official web portal to all federal, state and local government web resources and services.